Location: Haram ta Haram Freeway
(35.0583°N, 51.4202°E)
Time: 15:19:50
(UTC+04:30)

CAS-4A - Visible Passes

Search period start: 03 July 2020 00:00
Search period end: 13 July 2020 00:00
Orbit: 529 x 543 km, 43.0° (Epoch: 03 July)

Date Brightness Start Highest point End Pass type
(mag) Time Alt. Az. Time Alt. Az. Time Alt. Az.
03 Jul ? 03:42:11 13° SE 03:42:11 13° SE 03:43:52 10° ESE visible
03 Jul ? 05:17:40 10° SW 05:21:44 74° SSE 05:25:48 10° ENE visible
04 Jul ? 03:32:14 16° SE 03:32:14 16° SE 03:34:15 10° E visible
04 Jul ? 05:07:34 12° WSW 05:11:21 87° NNW 05:15:26 10° ENE visible
05 Jul ? 03:22:13 20° ESE 03:22:13 20° ESE 03:24:18 10° E visible
05 Jul ? 04:57:33 14° WSW 05:00:59 70° NNW 05:05:04 10° ENE visible
06 Jul ? 03:12:09 22° ESE 03:12:09 22° ESE 03:14:12 10° E visible
06 Jul ? 04:47:29 16° W 04:50:38 57° NNW 04:54:39 10° ENE visible
07 Jul ? 03:02:03 24° E 03:02:03 24° E 03:04:00 10° ENE visible
07 Jul ? 04:37:23 17° W 04:40:18 48° NNW 04:44:16 10° NE visible
08 Jul ? 02:51:55 24° E 02:51:55 24° E 02:53:44 10° ENE visible
08 Jul ? 04:27:15 17° W 04:29:59 41° NNW 04:33:52 10° NE visible
09 Jul ? 02:41:45 23° ENE 02:41:45 23° ENE 02:43:25 10° ENE visible
09 Jul ? 04:17:04 17° WNW 04:19:41 36° NNW 04:23:28 10° NE visible
10 Jul ? 02:31:34 22° ENE 02:31:34 22° ENE 02:33:03 10° ENE visible
10 Jul ? 04:06:53 17° WNW 04:09:23 32° NNW 04:13:05 10° NE visible
11 Jul ? 02:21:22 20° ENE 02:21:22 20° ENE 02:22:41 10° ENE visible
11 Jul ? 03:56:41 17° WNW 03:59:06 30° N 04:02:43 10° NE visible
12 Jul ? 02:11:10 18° NE 02:11:10 18° NE 02:12:18 10° ENE visible
12 Jul ? 03:46:29 17° NW 03:48:49 28° N 03:52:23 10° NE visible
12 Jul ? 05:26:03 10° NW 05:29:43 30° NNE 05:33:21 10° ENE visible
